Stations météo

réclame
Mon MeteoGroup
Valencia/Manises, Espagne (8284): Température de l'air & dewpoint: 10.12.2017 19:00:00 - 16.12.2017 19:00:00 (CET)Valencia/Manises, Espagne (8284): Vitesse du vent: 10.12.2017 19:00:00 - 16.12.2017 19:00:00 (CET)Valencia/Manises, Espagne (8284): Direction du vent: 10.12.2017 19:00:00 - 16.12.2017 19:00:00 (CET)Valencia/Manises, Espagne (8284): reduced air pressure: 10.12.2017 19:00:00 - 16.12.2017 19:00:00 (CET)Valencia/Manises, Espagne (8284): visibility: 10.12.2017 19:00:00 - 16.12.2017 19:00:00 (CET)
Date & Time tt [°C] td [°C] ff [km/h] ff [knt] dd ppp [hPa] vv [km]
16.12.2017 19:00:00 10,8 -3,0 15 8 NW 1021,3 20
16.12.2017 18:00:00 12,4 -3,0 18 10 NW 1020,2 -
16.12.2017 17:00:00 15,1 -2,8 13 7 NW 1019,3 -
16.12.2017 16:00:00 15,9 -3,1 16 9 NNW 1018,6 45
16.12.2017 15:00:00 15,9 -3,6 18 10 NW 1018,2 -
16.12.2017 14:00:00 15,5 -3,8 21 11 NW 1018,1 -
16.12.2017 13:00:00 15,0 -3,2 16 9 NNW 1018,5 50
16.12.2017 12:00:00 14,0 -2,9 13 7 NW 1019,1 -
16.12.2017 11:00:00 12,2 -1,6 11 6 W 1018,8 -
16.12.2017 10:00:00 8,4 -0,7 8 4 W 1017,9 50
16.12.2017 09:00:00 4,2 -1,6 11 6 WSW 1017,4 -
16.12.2017 08:00:00 3,6 -1,8 8 4 S 1016,6 -
16.12.2017 07:00:00 3,3 -1,6 4 2 S 1015,5 25
16.12.2017 06:00:00 2,3 -1,7 5 3 WSW 1014,8 -
16.12.2017 05:00:00 2,5 -1,7 8 4 NW 1014,5 -
16.12.2017 04:00:00 2,8 -1,4 4 2 WNW 1014,5 25
16.12.2017 03:00:00 3,9 -1,2 0 0 N 1013,9 -
16.12.2017 02:00:00 5,4 -1,3 13 7 W 1013,5 -
16.12.2017 01:00:00 5,3 -0,3 13 7 WNW 1013,6 25
16.12.2017 00:00:00 6,6 -0,4 9 5 NW 1013,7 -
15.12.2017 23:00:00 8,9 -0,2 15 8 NNW 1013,3 -
15.12.2017 22:00:00 10,3 -0,6 18 10 NNW 1012,6 30
15.12.2017 21:00:00 12,3 -0,5 11 6 NW 1012,3 -
15.12.2017 20:00:00 13,4 -0,4 9 5 N 1011,8 -
15.12.2017 19:00:00 13,5 7,3 11 6 ENE 1011,1 30
15.12.2017 18:00:00 13,7 8,1 11 6 SW 1009,8 -
15.12.2017 17:00:00 15,0 6,6 4 2 NNW 1009,1 -
15.12.2017 16:00:00 16,1 7,6 16 9 WSW 1008,4 30
15.12.2017 15:00:00 16,8 6,6 24 13 WSW 1008,1 -
15.12.2017 14:00:00 16,9 5,5 26 14 W 1008,6 -
15.12.2017 13:00:00 17,2 5,2 26 14 W 1009,2 40
15.12.2017 12:00:00 16,9 3,6 18 10 W 1010,5 -
15.12.2017 11:00:00 16,3 3,9 26 14 W 1011,3 -
15.12.2017 10:00:00 15,8 5,1 16 9 WNW 1010,6 45
15.12.2017 09:00:00 14,2 5,7 9 5 SSW 1008,5 -
15.12.2017 08:00:00 14,2 6,5 22 12 W 1008,8 -
15.12.2017 07:00:00 13,9 7,6 16 9 SW 1008,9 40
15.12.2017 06:00:00 14,2 8,4 35 19 WSW 1008,9 -
15.12.2017 05:00:00 14,8 8,7 29 16 W 1009,7 -
15.12.2017 04:00:00 15,0 8,7 28 15 W 1010,4 40
15.12.2017 03:00:00 14,8 8,7 26 14 SW 1010,7 -
15.12.2017 02:00:00 14,5 8,9 31 17 W 1011,3 -
15.12.2017 01:00:00 13,9 8,7 35 19 W 1012,3 40
15.12.2017 00:00:00 13,8 8,4 26 14 W 1013,5 -
14.12.2017 23:00:00 14,0 8,4 39 21 W 1013,8 -
14.12.2017 22:00:00 13,7 8,2 34 18 WSW 1015,1 40
14.12.2017 21:00:00 13,8 8,1 34 18 W 1015,5 -
14.12.2017 20:00:00 13,7 7,9 28 15 W 1016,1 -
14.12.2017 19:00:00 14,0 6,8 31 17 W 1015,7 45
14.12.2017 18:00:00 13,7 6,8 34 18 WSW 1015,8 -
14.12.2017 17:00:00 13,8 6,6 39 21 WSW 1015,5 -
14.12.2017 16:00:00 14,3 6,6 42 23 WSW 1015,4 45
14.12.2017 15:00:00 15,1 6,1 44 24 WSW 1016,0 -
14.12.2017 14:00:00 14,2 5,7 34 18 WSW 1017,5 -
14.12.2017 13:00:00 13,3 5,2 42 23 WSW 1018,4 45
14.12.2017 12:00:00 12,8 4,7 48 26 WSW 1019,4 -
14.12.2017 11:00:00 13,8 4,4 39 21 W 1019,9 -
14.12.2017 10:00:00 12,1 4,6 34 18 WSW 1020,1 45
14.12.2017 09:00:00 11,7 4,9 28 15 WSW 1019,6 -
14.12.2017 08:00:00 10,8 4,7 34 18 W 1019,5 -
14.12.2017 07:00:00 10,6 4,5 24 13 WSW 1019,7 15
14.12.2017 06:00:00 10,5 4,0 34 18 WSW 1019,3 -
14.12.2017 05:00:00 10,2 3,5 35 19 WSW 1019,9 -
14.12.2017 04:00:00 10,3 3,1 31 17 WSW 1020,2 15
14.12.2017 03:00:00 9,9 2,7 21 11 WSW 1020,6 -
14.12.2017 02:00:00 10,5 2,1 21 11 SW 1020,7 -
14.12.2017 01:00:00 9,3 1,7 11 6 W 1021,5 15
14.12.2017 00:00:00 10,6 1,9 13 7 W 1022,1 -
13.12.2017 23:00:00 10,6 1,1 8 4 WSW 1022,2 -
13.12.2017 22:00:00 11,0 0,7 16 9 W 1022,4 15
13.12.2017 21:00:00 11,2 0,3 21 11 W 1022,7 -
13.12.2017 20:00:00 11,1 0,2 18 10 W 1023,0 -
13.12.2017 19:00:00 11,3 -0,5 18 10 WSW 1022,7 40
13.12.2017 18:00:00 13,0 -0,3 18 10 SW 1022,8 -
13.12.2017 17:00:00 14,7 -1,2 16 9 WSW 1023,1 -
13.12.2017 16:00:00 16,1 -1,1 18 10 WSW 1022,7 40
13.12.2017 15:00:00 15,5 -2,0 16 9 W 1022,9 -
13.12.2017 14:00:00 14,4 -1,7 29 16 WSW 1024,1 -
13.12.2017 13:00:00 13,6 -2,4 28 15 WSW 1024,9 40
13.12.2017 12:00:00 12,0 -1,4 24 13 WSW 1026,8 -
13.12.2017 11:00:00 11,3 -2,3 24 13 WSW 1027,1 -
13.12.2017 10:00:00 7,3 -1,8 16 9 WSW 1027,4 40
13.12.2017 09:00:00 3,2 -2,3 16 9 WSW 1027,3 -
13.12.2017 08:00:00 -0,4 -3,8 4 2 W 1027,1 -
13.12.2017 07:00:00 -0,6 -4,0 9 5 W 1026,4 25
13.12.2017 06:00:00 0,7 -3,6 8 4 W 1026,2 -
13.12.2017 05:00:00 -0,3 -4,0 4 2 W 1025,6 -
13.12.2017 04:00:00 0,7 -3,4 8 4 WSW 1026,0 20
13.12.2017 03:00:00 1,6 -3,5 15 8 W 1025,7 -
13.12.2017 02:00:00 2,6 -3,5 16 9 WNW 1025,3 -
13.12.2017 01:00:00 2,1 -3,6 5 3 WNW 1024,7 20
13.12.2017 00:00:00 3,3 -3,7 4 2 WSW 1024,3 -
12.12.2017 23:00:00 4,0 -4,2 9 5 WSW 1022,9 -
12.12.2017 22:00:00 6,8 -3,7 11 6 NW 1022,7 20
12.12.2017 21:00:00 7,5 -4,1 11 6 WNW 1022,0 -
12.12.2017 20:00:00 11,1 -4,6 29 16 N 1020,8 -
12.12.2017 19:00:00 11,5 -6,0 26 14 NNW 1019,2 20
12.12.2017 18:00:00 12,4 -8,8 26 14 NNW 1018,1 -
12.12.2017 17:00:00 13,8 -9,5 24 13 NW 1016,8 -
12.12.2017 16:00:00 14,7 -10,9 29 16 NNW 1015,8 45
12.12.2017 15:00:00 15,4 -6,1 9 5 WNW 1015,2 -
12.12.2017 14:00:00 14,7 -4,5 13 7 NNW 1014,8 -
12.12.2017 13:00:00 13,5 -4,0 5 3 WNW 1015,1 45
12.12.2017 12:00:00 12,6 -3,1 16 9 NW 1015,2 -
12.12.2017 11:00:00 10,1 -0,4 8 4 WNW 1014,9 -
12.12.2017 10:00:00 8,1 1,4 8 4 WSW 1014,4 50
12.12.2017 09:00:00 7,0 1,9 9 5 W 1013,0 -
12.12.2017 08:00:00 4,8 2,3 8 4 W 1012,0 -
12.12.2017 07:00:00 3,6 1,5 8 4 W 1010,6 40
12.12.2017 06:00:00 4,6 1,4 0 0 N 1009,4 -
12.12.2017 05:00:00 5,4 2,0 11 6 WSW 1008,4 -
12.12.2017 04:00:00 6,4 2,5 0 0 N 1008,2 40
12.12.2017 03:00:00 7,1 2,6 13 7 W 1007,1 -
12.12.2017 02:00:00 7,4 2,7 11 6 WNW 1006,8 -
12.12.2017 01:00:00 8,4 2,6 11 6 SSW 1006,6 40
12.12.2017 00:00:00 7,8 2,8 9 5 SW 1006,0 -
11.12.2017 23:00:00 9,1 2,9 5 3 W 1005,0 -
11.12.2017 22:00:00 9,7 2,8 8 4 WNW 1004,0 40
11.12.2017 21:00:00 9,8 2,9 16 9 WNW 1002,9 -
11.12.2017 20:00:00 10,3 2,9 18 10 W 1002,1 -
11.12.2017 19:00:00 11,2 3,2 15 8 SW 1001,2 40
11.12.2017 18:00:00 11,3 3,8 29 16 W 999,0 -
11.12.2017 17:00:00 12,5 3,4 41 22 W 997,5 -
11.12.2017 16:00:00 12,2 3,4 44 24 W 996,0 50
11.12.2017 15:00:00 12,0 3,2 50 27 W 995,2 -
11.12.2017 14:00:00 11,9 3,1 34 18 W 994,9 -
11.12.2017 13:00:00 11,4 2,7 46 25 WSW 995,0 50
11.12.2017 12:00:00 11,8 3,0 39 21 WSW 995,8 -
11.12.2017 11:00:00 12,3 3,5 42 23 W 995,3 -
11.12.2017 10:00:00 12,8 4,2 52 28 W 993,7 30
11.12.2017 09:00:00 14,5 4,8 37 20 WSW 992,7 -
11.12.2017 08:00:00 16,9 4,6 11 6 SSW 990,2 -
11.12.2017 07:00:00 16,9 4,2 16 9 SSW 990,7 15
11.12.2017 06:00:00 16,9 4,2 16 9 SSW 991,4 -
11.12.2017 05:00:00 16,3 3,7 15 8 S 992,7 -
11.12.2017 04:00:00 16,8 4,8 18 10 SSW 994,4 15
11.12.2017 03:00:00 17,5 6,4 31 17 SW 995,8 -
11.12.2017 02:00:00 17,4 6,0 39 21 SW 997,5 -
11.12.2017 01:00:00 16,9 5,5 28 15 WSW 999,7 15
11.12.2017 00:00:00 16,6 5,8 37 20 WSW 1000,9 -
10.12.2017 23:00:00 16,0 6,7 29 16 W 1002,8 -
10.12.2017 22:00:00 16,2 7,1 39 21 WSW 1004,2 14
10.12.2017 21:00:00 15,8 7,0 35 19 WSW 1006,0 -
10.12.2017 20:00:00 15,9 6,9 42 23 W 1005,9 -
10.12.2017 19:00:00 16,0 6,1 29 16 W 1007,1 40

tt = Température de l'air
td = dewpoint
ff = Vitesse du vent
dd = Direction du vent
ppp = reduced air pressure
vv = visibility

stations d'obs. à proximité